SCP
1 1 0 0 0 0 0 0 0 0 0 0 0 0 0 0 0 0 0 1 1 1 1 1 1 1 1 1 1 1 1 1 1 1 1 1 1 1 1 1 1 1 1 1 1 1 1 1 1
1 1 0 0 0 0 0 0 0 0 0 0 0 0 0 0 0 0 0 1 1 1 1 1 1 1 1 1 1 1 1 1 1 1 1 1 1 1 1 1 2 2 1 1 1 1 1 1 1
1 1 0 0 0 0 0 0 0 0 0 0 0 0 0 0 0 0 0 1 1 1 1 1 1 1 1 1 1 1 1 1 1 1 1 1 1 1 1 1 2 2 2 2 1 1 1 1 1
1 1 0 0 0 0 0 0 0 0 0 0 0 0 0 0 0 0 1 1 1 1 1 1 1 1 1 1 1 1 1 1 1 1 1 1 1 1 1 1 1 1 2 2 2 1 1 1 1
1 0 0 0 0 0 0 0 0 0 0 0 0 0 0 0 1 1 1 1 1 1 1 1 1 1 1 1 1 0 0 0 0 0 0 1 1 1 1 1 1 1 1 2 1 1 1 1 1
1 0 0 0 0 0 0 0 0 0 0 0 0 0 0 0 1 1 1 1 1 1 1 1 1 1 1 1 1 0 0 0 1 0 1 1 1 1 1 1 1 1 1 1 1 1 1 1 1
1 0 0 0 0 0 0 0 0 0 0 0 0 0 0 1 1 1 1 1 1 1 1 1 0 1 1 1 0 0 0 1 1 1 1 1 1 1 1 1 1 1 1 1 1 1 1 1 1
0 0 0 0 0 0 0 0 0 0 1 1 1 0 0 1 1 1 0 0 0 0 0 0 0 0 0 0 0 0 1 1 1 1 1 1 1 1 1 1 1 1 1 1 1 1 1 1 1
1 0 0 0 0 0 0 0 1 1 1 1 1 1 1 1 1 0 0 0 0 0 0 0 0 0 0 0 0 0 0 0 1 1 1 1 1 1 1 1 1 1 1 1 1 1 1 1 1
1 0 0 0 0 0 0 1 1 1 1 1 1 1 1 1 0 0 0 0 0 0 0 0 0 0 0 0 0 0 0 0 0 0 0 0 0 0 0 1 1 1 1 1 1 1 1 1 1
1 1 0 0 0 0 1 1 1 1 1 1 1 1 1 1 0 0 0 0 0 0 0 0 0 0 0 0 0 0 0 0 0 0 0 0 0 0 0 0 1 1 1 1 1 1 1 1 1
1 1 0 0 0 1 1 1 1 1 1 1 1 1 1 1 0 0 0 0 0 0 0 0 0 0 0 0 0 0 0 0 0 0 0 0 0 0 0 0 0 0 1 1 1 1 1 1 1
1 1 0 0 1 1 1 1 1 1 1 1 1 1 1 0 0 0 0 0 0 0 0 0 0 0 0 0 0 0 0 0 0 0 0 0 0 0 0 0 0 0 0 0 1 1 1 1 1
1 1 0 0 0 0 0 0 0 0 0 1 1 1 1 0 0 0 0 0 0 0 0 0 0 0 0 0 0 0 0 0 0 0 0 0 0 0 0 0 0 0 0 0 0 1 1 1 1
1 1 0 0 0 0 0 0 0 0 0 1 1 1 0 0 0 0 0 0 0 0 0 0 0 0 0 0 0 0 0 0 0 0 0 0 0 0 0 0 0 0 0 0 0 0 1 1 1
1 0 0 0 0 0 0 0 0 0 0 1 1 1 0 0 0 0 0 0 0 0 0 0 0 0 0 0 0 0 0 0 0 0 0 0 0 0 0 0 0 0 0 0 0 0 0 0 0
0 0 0 0 0 0 0 0 0 0 0 1 1 1 0 0 0 0 0 0 0 0 0 0 0 0 0 0 0 0 0 0 0 0 0 0 0 0 0 0 0 0 0 0 0 0 0 0 0
0 0 0 0 0 0 0 0 0 0 0 0 0 0 0 0 0 0 0 0 0 0 0 0 0 0 0 0 0 0 0 0 0 0 0 0 0 0 0 0 0 0 0 0 0 0 0 0 0
0 0 0 0 0 0 0 0 0 0 0 0 0 0 0 0 0 0 0 0 0 0 0 0 0 0 0 0 0 0 0 0 0 0 0 0 0 0 0 0 0 0 0 0 0 0 0 0 0
0 0 0 0 0 0 0 0 0 0 0 0 0 0 0 0 0 0 0 0 0 0 0 0 0 0 0 0 0 0 0 0 0 0 0 0 0 0 0 0 0 0 0 0 0 0 0 0 0
0 0 0 0 0 0 0 0 0 0 0 0 0 0 0 0 0 0 0 0 0 0 0 0 0 0 0 0 0 0 0 0 0 0 0 0 0 0 0 0 0 0 0 0 0 0 0 0 0
0 0 0 0 0 0 0 0 0 0 0 0 0 0 0 0 0 0 0 0 0 0 0 0 0 0 0 0 0 0 0 0 0 0 0 0 0 0 0 0 0 0 0 0 0 0 0 0 0
0 0 0 0 0 0 0 0 0 0 0 0 0 0 0 0 0 0 0 0 0 0 0 0 0 0 0 0 0 0 0 0 0 0 0 0 0 0 0 0 0 0 0 0 0 0 0 0 0
0 0 0 0 0 0 0 0 0 0 0 0 0 0 0 0 0 0 0 0 0 0 0 0 0 0 0 0 0 0 0 0 0 0 0 0 0 0 0 0 0 0 0 0 0 0 0 0 0
0 0 0 0 0 0 0 0 0 0 0 0 0 0 0 0 0 0 0 0 0 0 0 0 0 0 0 0 0 0 0 0 0 0 0 0 0 0 0 0 0 0 0 0 0 0 0 0 0
0 0 0 0 0 0 0 0 0 0 0 0 0 0 0 0 0 0 0 0 0 0 0 0 0 0 0 0 0 0 0 0 0 0 0 0 0 0 0 0 0 0 0 0 0 0 0 0 0
0 0 0 0 0 0 0 0 0 0 0 0 0 0 0 0 0 0 0 0 0 0 0 0 0 0 0 0 0 0 0 0 0 0 0 0 0 0 0 0 0 0 0 0 0 0 0 0 0
0 0 0 0 0 0 0 0 0 0 0 0 0 0 0 0 0 0 0 0 0 0 0 0 0 0 0 0 0 0 0 0 0 0 0 0 0 0 0 0 0 0 0 0 0 0 0 0 0
0 0 0 0 0 0 0 0 0 0 0 0 0 0 0 0 0 0 0 0 0 0 0 0 0 0 0 0 0 0 0 0 0 0 0 0 0 0 0 0 0 0 0 0 0 0 0 0 0
0 0 0 0 0 0 0 0 0 0 0 0 0 0 0 0 0 0 0 0 0 0 0 0 0 0 0 0 0 0 0 0 0 0 0 0 0 0 0 0 0 0 0 0 0 0 0 0 0
Wind_Speed
8 5 3 2 2 1 2 2 2 1 0 1 5 7 7 5 4 4 1 6 10 8 7 9 11 10 9 9 8 7 7 7 7 7 7 6 6 6 6 5 5 5 4 4 4 4 4 3 3
5 4 2 2 2 1 2 2 2 2 3 5 5 6 7 6 5 5 3 7 10 9 7 8 10 10 9 7 7 6 6 5 5 5 5 5 4 4 4 4 4 4 3 3 3 2 2 2 1
5 3 2 2 1 2 2 2 2 0 2 3 4 5 5 4 4 4 6 10 9 8 6 8 11 10 8 7 6 5 4 3 3 3 3 3 3 3 3 3 3 3 2 2 2 2 2 1 1
3 2 2 1 2 3 3 3 1 1 1 3 6 5 4 2 4 7 11 11 9 7 6 7 11 10 9 8 6 5 3 3 2 2 2 2 3 3 3 3 3 2 2 2 1 1 2 2 2
2 2 1 0 2 2 2 2 2 1 1 3 7 6 3 2 7 11 11 10 9 7 5 7 11 10 9 8 6 5 3 3 2 2 3 4 4 4 4 4 4 4 3 3 2 2 2 3 3
2 2 2 1 2 1 1 1 3 2 2 4 7 6 3 3 8 9 9 9 9 8 6 6 10 10 8 7 6 5 3 3 2 3 4 5 6 6 6 6 6 6 5 5 4 4 4 4 4
3 3 2 2 1 1 2 2 3 3 3 4 7 6 4 3 6 8 9 8 7 7 6 4 4 6 7 7 6 5 4 3 3 4 4 5 6 7 8 8 7 7 7 7 7 6 6 6 6
3 3 1 1 2 3 3 3 4 5 4 5 5 8 7 7 7 7 7 7 6 6 5 4 4 3 2 3 5 5 4 4 4 5 5 6 7 7 8 8 9 9 9 9 8 8 7 6 6
3 3 2 3 4 3 2 3 1 2 5 3 2 5 8 11 9 7 5 4 4 5 4 4 4 3 3 3 3 3 3 4 4 4 5 5 3 3 4 6 8 10 10 10 9 9 8 7 7
3 3 5 4 4 3 2 2 3 3 5 4 4 6 11 11 10 9 8 6 5 5 4 4 4 3 3 2 1 1 1 2 2 2 2 2 2 2 3 5 7 8 9 9 9 9 7 5 2
4 5 4 2 3 3 2 1 2 6 4 7 10 12 11 10 9 9 8 7 6 5 5 4 4 4 3 1 1 0 0 1 1 2 1 1 1 1 2 1 3 4 5 3 4 4 2 2 2
2 4 4 2 2 3 2 1 2 6 8 11 15 15 12 10 9 9 8 7 6 5 5 4 5 4 2 2 1 1 0 0 1 1 1 1 1 1 1 1 2 2 1 2 2 2 3 3 3
2 2 2 3 2 2 2 2 3 4 6 10 12 12 12 11 9 8 8 8 7 6 5 5 5 4 3 2 1 1 0 0 1 1 2 1 1 1 1 1 2 2 1 1 2 2 3 3 3
3 2 2 2 1 1 0 3 2 4 7 11 12 11 11 11 10 8 8 8 7 7 6 5 5 5 4 2 1 1 0 1 1 2 2 2 1 1 1 2 2 2 2 1 1 2 2 2 2
0 1 3 3 2 2 1 2 5 6 8 11 11 10 10 10 10 11 10 10 9 8 7 6 5 5 4 3 2 1 1 1 1 1 2 2 2 2 1 2 2 2 2 1 1 1 1 1 1
3 2 1 4 2 2 3 6 8 6 8 9 9 9 9 8 10 10 10 9 9 8 7 6 6 5 4 3 2 1 1 1 1 1 1 2 2 2 2 1 2 2 2 1 1 1 1 1 1
3 0 3 4 3 2 3 6 6 4 8 9 9 8 8 7 8 8 10 11 10 9 8 6 6 5 4 3 2 1 1 1 0 0 1 1 2 2 1 1 2 2 1 1 2 1 0 1 1
2 1 2 3 3 1 3 7 6 5 7 9 9 8 8 10 9 10 10 10 9 8 7 7 6 5 4 2 2 2 2 1 1 1 1 1 1 1 1 1 2 1 1 2 1 1 1 1 1
3 2 2 4 4 2 6 9 9 6 6 8 8 8 9 9 7 9 9 9 8 7 7 6 6 4 3 2 1 1 1 1 1 1 1 1 1 1 1 1 2 1 0 1 1 0 1 1 0
3 2 2 4 4 4 6 9 9 7 9 9 10 10 11 8 6 8 8 8 8 8 7 6 6 5 4 2 2 2 1 1 1 1 1 1 1 2 1 1 1 1 1 1 1 1 0 1 1
3 4 4 3 3 3 2 7 5 3 5 5 7 9 11 13 13 11 9 8 8 8 8 7 6 6 5 3 2 1 2 2 2 2 2 2 2 2 1 1 1 1 0 1 1 0 1 0 1
3 5 4 3 0 3 1 3 7 3 2 5 6 7 9 10 10 10 10 9 9 8 7 7 7 6 5 4 3 2 2 1 2 2 2 3 2 2 1 1 1 1 0 1 1 1 1 2 0
6 4 3 2 1 2 2 2 7 1 3 6 7 7 9 11 11 12 11 10 9 8 7 7 7 6 5 4 4 3 2 2 1 1 2 2 2 2 2 1 1 1 1 1 0 0 1 2 2
2 3 4 4 4 2 3 2 5 4 6 6 5 6 8 9 10 10 8 7 6 6 6 7 7 5 5 4 4 4 3 2 1 1 1 2 2 2 3 2 1 1 0 1 0 0 1 1 2
4 6 5 6 5 5 3 1 6 6 4 6 7 7 7 8 9 9 9 9 8 8 7 7 7 6 5 4 4 4 4 3 3 2 1 1 1 2 3 2 1 1 1 1 0 0 1 1 2
2 7 6 2 3 5 5 1 6 4 1 2 5 6 7 8 9 10 11 10 10 9 8 8 8 6 5 5 4 3 4 2 2 2 2 2 2 2 2 2 2 1 1 0 1 1 0 1 1
3 2 5 6 0 2 5 4 5 3 2 2 4 5 7 8 9 10 10 10 10 10 9 9 9 6 6 5 4 3 3 3 2 2 1 1 2 2 1 1 1 1 1 1 1 1 0 1 1
4 5 5 4 2 2 5 4 4 4 4 4 4 6 8 8 8 8 9 10 10 9 8 8 8 8 6 6 5 4 3 3 3 2 1 1 1 1 1 1 1 1 1 1 1 1 0 1 0
1 2 5 4 4 4 2 7 7 7 7 7 8 8 9 9 9 9 9 9 9 7 7 7 7 6 6 6 5 4 3 3 3 2 2 1 1 1 1 1 1 1 1 1 1 1 1 1 1
4 4 6 4 2 4 3 8 7 5 6 6 7 7 7 8 8 8 9 8 8 8 8 8 8 7 7 6 5 5 4 3 3 2 2 1 1 1 0 0 1 1 1 1 1 1 1 1 1
Wind_Direction
184 148 113 88 62 40 280 258 197 203 273 67 87 87 83 63 77 126 174 140 137 140 141 140 137 132 128 127 127 125 122 120 118 119 118 117 119 120 121 118 115 112 109 107 102 100 99 93 75
149 139 109 82 95 61 279 251 202 199 173 135 95 85 80 78 87 109 123 140 138 137 138 139 137 133 130 130 129 128 126 126 127 127 126 127 129 129 129 130 128 123 119 119 117 119 119 112 90
155 160 125 98 150 188 228 236 226 255 198 140 92 64 78 106 116 131 152 146 139 137 140 145 140 137 134 131 130 130 131 137 145 149 153 157 160 156 151 150 149 146 141 141 137 143 155 171 205
137 79 62 87 247 231 205 213 162 18 37 88 105 77 65 95 133 139 145 143 139 141 147 150 144 143 143 141 140 141 146 156 175 198 209 211 209 206 210 202 191 194 190 180 183 198 204 208 226
87 103 73 278 249 242 229 195 138 84 26 93 105 97 77 56 117 132 142 144 142 149 156 156 151 152 152 151 151 157 169 184 205 231 240 243 247 242 239 242 232 227 231 232 239 239 245 242 238
75 80 93 230 261 282 251 174 110 101 115 113 107 111 121 126 126 139 143 147 148 154 161 161 161 162 163 164 166 171 184 202 224 250 263 261 261 266 263 257 248 242 243 244 248 247 250 253 252
132 126 190 207 212 295 220 161 139 152 154 148 132 113 135 161 148 144 145 147 149 153 157 167 173 171 171 174 179 189 201 214 234 258 271 270 268 267 268 265 257 250 245 247 251 253 253 253 256
147 122 193 199 184 230 220 154 167 149 136 129 126 139 163 186 158 140 136 140 148 152 157 172 174 168 172 192 199 207 223 238 251 264 273 272 274 275 273 269 262 256 251 248 249 251 254 257 259
116 96 204 210 192 220 218 154 162 111 103 91 112 154 160 157 145 130 123 127 146 154 163 170 169 174 183 206 221 221 241 260 275 287 288 285 285 284 276 273 268 261 258 254 251 252 256 260 263
125 163 220 211 184 184 216 182 158 100 93 91 88 118 141 149 150 149 154 159 162 164 172 167 161 166 178 204 184 253 268 289 291 292 298 307 286 281 283 282 279 271 263 260 257 254 258 257 261
163 193 224 240 207 174 177 214 150 130 151 170 162 160 160 158 159 164 168 163 168 169 158 152 153 153 154 161 162 195 290 309 309 307 310 314 304 301 306 305 298 295 281 271 269 263 252 237 234
176 227 213 231 207 174 185 188 166 178 193 179 167 163 165 166 171 175 171 167 165 148 144 143 142 133 127 114 114 127 91 343 331 322 336 337 331 318 306 295 296 296 288 265 251 248 247 241 237
214 257 262 255 232 219 179 220 208 206 171 157 158 161 167 171 174 176 167 162 155 144 140 132 129 123 114 95 77 92 90 8 337 357 350 357 6 338 335 326 321 307 297 280 269 256 252 245 242
217 247 292 282 279 321 177 261 183 214 160 156 163 170 173 173 170 160 157 156 155 149 144 137 124 123 111 103 95 92 84 63 41 22 16 25 31 13 7 355 339 321 301 276 256 253 247 240 231
215 38 329 314 298 287 99 281 229 207 162 163 174 177 176 177 169 167 168 162 159 154 149 143 131 118 109 101 85 79 54 70 57 23 22 33 35 24 22 360 336 316 314 313 309 300 272 257 248
29 58 308 280 254 241 152 249 253 200 167 170 179 181 176 178 175 171 164 157 154 150 148 144 131 125 120 111 98 92 76 74 62 22 19 23 22 23 19 355 324 317 333 342 335 337 338 299 276
42 102 247 276 250 221 183 241 259 200 175 177 183 185 176 175 174 167 159 156 156 153 147 140 136 136 130 121 103 76 65 56 8 15 8 357 4 14 16 328 313 330 348 344 324 353 316 278 288
188 217 270 273 282 225 236 253 257 229 196 187 189 188 178 180 180 170 160 156 154 152 148 144 141 141 130 106 73 41 29 357 340 312 296 319 331 351 350 313 318 339 355 337 327 313 327 250 261
158 146 267 265 254 225 248 260 258 233 210 196 193 191 187 188 176 164 158 153 147 149 147 148 146 153 133 110 109 91 313 300 304 289 296 316 317 328 345 321 326 342 350 306 309 319 334 320 354
169 152 275 284 254 216 253 266 263 228 212 200 192 191 188 180 163 165 160 158 159 161 158 155 156 157 153 155 171 186 199 243 258 289 322 325 319 326 337 336 318 315 327 341 344 44 54 342 49
196 201 212 242 318 309 291 313 300 262 210 201 194 186 183 178 175 173 169 171 166 167 168 162 163 160 161 153 122 71 46 19 357 331 315 305 298 303 317 327 302 295 259 271 290 163 144 152 327
216 231 217 224 343 291 157 290 298 290 198 198 194 179 182 180 175 174 173 175 176 176 170 159 160 161 162 151 138 138 150 204 245 252 271 293 294 292 303 318 310 299 280 267 269 182 163 140 128
213 226 230 241 189 320 321 156 292 320 203 218 211 190 185 182 179 181 181 181 177 170 164 159 154 159 164 160 153 150 163 212 253 273 296 306 305 302 302 313 323 312 284 265 274 171 145 147 154
174 47 29 38 64 334 267 153 272 246 218 216 214 196 184 181 182 183 179 168 165 162 156 153 155 166 170 162 158 163 173 188 217 290 306 307 304 304 306 322 323 299 279 255 244 185 157 161 157
78 74 32 12 12 273 291 153 255 263 233 197 190 193 184 178 174 173 171 171 169 166 163 159 160 171 177 166 172 177 179 182 196 228 234 251 280 286 292 311 307 301 279 258 177 119 149 165 158
141 129 141 170 248 293 342 328 280 297 277 155 161 167 169 176 180 180 181 177 175 173 168 165 167 173 176 174 183 185 180 180 207 215 209 225 239 253 267 284 286 289 301 353 103 107 169 145 161
116 136 163 135 91 339 326 322 322 352 34 129 153 159 179 186 188 187 184 181 179 177 177 175 172 173 178 179 177 184 185 186 200 210 208 227 250 260 281 286 302 310 337 20 81 101 101 110 138
142 141 88 90 100 343 322 305 258 253 244 236 215 206 206 200 194 191 187 186 185 184 181 175 172 175 178 178 180 183 190 193 190 181 200 229 262 285 324 337 348 353 356 28 64 69 76 93 66
103 88 101 108 143 143 294 281 240 227 227 224 230 224 214 206 199 194 193 191 185 179 176 176 176 174 176 181 182 175 188 191 183 186 218 228 255 280 296 336 13 26 27 37 65 53 102 93 70
163 170 142 138 228 164 174 269 276 247 241 228 234 237 226 213 203 196 190 182 181 183 183 182 181 181 184 182 177 182 187 181 180 201 229 225 226 258 240 77 58 53 59 61 85 81 96 117 116